Location: ???????
(55.3754°N, 39.3545°E)
Time: 21:12:07
(UTC+00:00)

Cosmos 1023 Rocket - Pass Details

Date: 14 April 2026
Orbit: 732 x 766 km, 74.1° (Epoch: 11 May)

Event Time Altitude Azimuth Distance (km) Brightness Sun altitude
Rises 19:19:58 0° 332° (NNW) 3,206 9.3 -20.1°
Reaches altitude 10° 19:22:22 10° 335° (NNW) 2,273 8.1 -20.3°
Maximum altitude 19:27:30 69° 59° (ENE) 796 4.5 -20.7°
Enters shadow 19:29:01 45° 126° (SE) 1,012 4.7 -20.8°
